Orbital Elements at Epoch 2459200.5 (2020-Dec-17.0) TDB
Reference: JPL 17 (heliocentric ecliptic J2000)
Element | Value | Uncertainty (1-sigma) | Units |
e | .1437031739723931 | 5.2005e-08 | |
a | 2.597769246696209 | 1.5752e-08 | au |
q | 2.224461560698091 | 1.3966e-07 | au |
i | 2.440046976751483 | 4.9569e-06 | deg |
node | 15.7760933735591 | 9.7798e-05 | deg |
peri | 140.9843108852602 | 9.9527e-05 | deg |
M | 56.61921175150785 | 1.4739e-05 | deg |
tp | 2458959.974790439396 (2020-Apr-20.47479044) | 6.3018e-05 | TDB |
period | 1529.323223746778 4.19 | 1.391e-05 3.808e-08 | d yr |
n | .2353982430986794 | 2.141e-09 | deg/d |
Q | 2.971076932694327 | 1.8015e-08 | au |
|
| | Orbit Determination Parameters
Additional Information
|